South St. Paul, MN

8:28 AM CDT on May 30, 2017 (GMT -0500)
South Saint Paul Municipal-Fleming

Weather History for KSGS - December, 2013

Change the Weather History Date:

Tuesday, December 24, 2013

  Actual Average (KSTP) Record (KSTP)
Temperature  
Mean Temperature 2 °F -  
Max Temperature 13 °F 23 °F 42 °F (2006)
Min Temperature -8 °F 9 °F -11 °F (2000)
Degree Days  
Heating Degree Days 62    
Moisture  
Dew Point -8 °F    
Average Humidity 67    
Maximum Humidity 80    
Minimum Humidity 44    
Precipitation  
Precipitation 0.00 in - - ()
Sea Level Pressure  
Sea Level Pressure 30.36 in    
Wind  
Wind Speed 3 mph (SSE)    
Max Wind Speed 12 mph    
Max Gust Speed 20 mph    
Visibility 10 miles    
Events Snow    
Averages and records for this station are not official NWS values.
T = Trace of Precipitation, MM = Missing Value Source: NWS Daily Summary

Daily Weather History Graph

Daily Weather History Graph

Search for Another Location

Airport or City:

Trip Planner

Search our weather history database for the weather conditions in past years. The results will help you decide how hot, cold, wet, or windy it might be!

Date:

Astronomy

Dec. 24, 2013 Rise Set
Actual Time 7:48 AM CST 4:35 PM CST
Civil Twilight 7:14 AM CST 5:09 PM CST
Nautical Twilight 6:37 AM CST 5:46 PM CST
Astronomical Twilight 6:01 AM CST 6:22 PM CST
Moon No Moon Rise 11:26 AM CST (12/24)
Length of Visible Light 9h 54m
Length of Day
8h 47m
Waning Gibbous, 58% of the Moon is Illuminated
Dec 24
Waning Gibbous
Dec 25
Last Quarter
Jan 1
New
Jan 7
First Quarter
Jan 15
Full

Hourly Weather History & Observations

Time (CST) Temp. Windchill Dew Point Humidity Pressure Visibility Wind Dir Wind Speed Gust Speed Precip Events Conditions
12:12 AM -0.6 °F - -8.0 °F 71% 30.48 in 10.0 mi Calm Calm - N/A   Clear
12:32 AM -1.7 °F - -8.5 °F 73% 30.47 in 10.0 mi Calm Calm - N/A   Scattered Clouds
12:52 AM -2.2 °F - -8.7 °F 74% 30.46 in 10.0 mi Calm Calm - N/A   Clear
1:12 AM -3.3 °F - -9.6 °F 74% 30.47 in 10.0 mi Calm Calm - N/A   Clear
1:32 AM -3.1 °F -15.2 °F -9.4 °F 74% 30.48 in 10.0 mi WSW 5.8 mph - N/A   Clear
1:52 AM -3.8 °F - -10.3 °F 74% 30.48 in 10.0 mi Calm Calm - N/A   Clear
2:12 AM -4.5 °F - -11.2 °F 73% 30.48 in 10.0 mi Calm Calm - N/A   Clear
2:32 AM -5.4 °F -14.1 °F -13.0 °F 70% 30.48 in 10.0 mi WSW 3.5 mph - N/A   Clear
2:52 AM -5.8 °F - -13.4 °F 70% 30.48 in 10.0 mi Calm Calm - N/A   Clear
3:12 AM -6.3 °F - -13.5 °F 71% 30.47 in 10.0 mi Calm Calm - N/A   Clear
3:32 AM -6.7 °F - -13.9 °F 71% 30.47 in 10.0 mi Calm Calm - N/A   Clear
3:52 AM -6.7 °F - -13.5 °F 72% 30.45 in 10.0 mi Calm Calm - N/A   Clear
4:12 AM -7.6 °F - -14.4 °F 72% 30.44 in 10.0 mi Calm Calm - N/A   Clear
4:32 AM -7.4 °F - -13.9 °F 73% 30.45 in 10.0 mi Calm Calm - N/A   Clear
4:52 AM -7.2 °F - -14.1 °F 72% 30.43 in 10.0 mi Calm Calm - N/A   Clear
5:12 AM -7.1 °F - -14.1 °F 72% 30.42 in 10.0 mi Calm Calm - N/A   Clear
5:32 AM -8.0 °F - -14.4 °F 73% 30.42 in 10.0 mi Calm Calm - N/A   Clear
5:52 AM -8.3 °F - -14.4 °F 75% 30.43 in 10.0 mi Calm Calm - N/A   Clear
6:12 AM -8.5 °F - -14.8 °F 74% 30.44 in 10.0 mi Calm Calm - N/A   Clear
6:32 AM -8.5 °F - -14.8 °F 74% 30.44 in 10.0 mi Calm Calm - N/A   Clear
6:52 AM -8.3 °F - -14.8 °F 73% 30.44 in 10.0 mi Calm Calm - N/A   Clear
7:12 AM -8.5 °F - -15.0 °F 73% 30.43 in 10.0 mi Calm Calm - N/A   Clear
7:32 AM -8.5 °F - -14.8 °F 74% 30.43 in 10.0 mi Calm Calm - N/A   Clear
7:52 AM -8.5 °F - -14.8 °F 74% 30.43 in 7.0 mi Calm Calm - N/A   Clear
8:12 AM -8.1 °F - -14.3 °F 75% 30.43 in 10.0 mi Calm Calm - N/A   Clear
8:32 AM -7.1 °F -15.9 °F -13.9 °F 72% 30.41 in 10.0 mi SSE 3.5 mph - N/A   Clear
8:52 AM -6.5 °F -17.5 °F -13.5 °F 72% 30.39 in 10.0 mi SE 4.6 mph - N/A   Clear
9:12 AM -5.6 °F -16.5 °F -13.0 °F 70% 30.39 in 10.0 mi SE 4.6 mph - N/A   Clear
9:32 AM -4.0 °F -16.3 °F -12.5 °F 67% 30.38 in 10.0 mi SSE 5.8 mph - N/A   Clear
9:52 AM -3.1 °F -13.5 °F -11.6 °F 67% 30.39 in 10.0 mi SSE 4.6 mph - N/A   Clear
10:12 AM -2.2 °F -12.5 °F -11.0 °F 66% 30.38 in 10.0 mi SE 4.6 mph - N/A   Clear
10:32 AM -0.6 °F -12.2 °F -10.3 °F 64% 30.37 in 10.0 mi ESE 5.8 mph - N/A   Clear
10:52 AM 1.0 °F -10.3 °F -8.7 °F 64% 30.36 in 10.0 mi SE 5.8 mph - N/A   Clear
11:12 AM 1.9 °F -5.6 °F -8.0 °F 63% 30.36 in 10.0 mi SE 3.5 mph - N/A   Clear
11:32 AM 3.2 °F -9.1 °F -7.2 °F 62% 30.35 in 10.0 mi SE 6.9 mph - N/A   Clear
11:52 AM 5.0 °F -8.1 °F -5.8 °F 61% 30.34 in 10.0 mi SSE 8.1 mph - N/A   Clear
12:12 PM 5.5 °F -7.4 °F -6.0 °F 59% 30.32 in 10.0 mi SSE 8.1 mph - N/A   Clear
12:32 PM 6.3 °F -5.4 °F -5.3 °F 59% 30.31 in 10.0 mi SSE 6.9 mph - N/A   Scattered Clouds
12:52 PM 6.8 °F -5.9 °F -4.9 °F 59% 30.30 in 10.0 mi SSE 8.1 mph - N/A   Clear
1:12 PM 8.1 °F -2.0 °F -4.0 °F 58% 30.29 in 10.0 mi SSE 5.8 mph - N/A   Scattered Clouds
1:32 PM 9.0 °F -3.2 °F -3.8 °F 56% 30.29 in 10.0 mi SE 8.1 mph - N/A   Mostly Cloudy
1:52 PM 9.9 °F 1.6 °F -2.6 °F 57% 30.27 in 10.0 mi SE 4.6 mph - N/A   Overcast
2:12 PM 10.6 °F -1.3 °F -2.0 °F 57% 30.27 in 10.0 mi SE 8.1 mph - N/A   Overcast
2:32 PM 11.5 °F 0.9 °F -1.3 °F 57% 30.25 in 10.0 mi SSE 6.9 mph - N/A   Mostly Cloudy
2:52 PM 12.9 °F 0.7 °F -0.6 °F 55% 30.24 in 10.0 mi SSE 9.2 mph - N/A   Overcast
3:12 PM 13.8 °F 1.0 °F -4.5 °F 44% 30.24 in 10.0 mi SSE 10.4 mph 18.4 mph N/A   Overcast
3:32 PM 13.3 °F 2.0 °F -4.0 °F 46% 30.24 in 10.0 mi SSE 8.1 mph - N/A   Overcast
3:52 PM 12.7 °F -1.1 °F -3.3 °F 49% 30.23 in 10.0 mi SSE 11.5 mph 17.3 mph N/A   Overcast
4:12 PM 12.6 °F 1.1 °F -1.7 °F 53% 30.23 in 10.0 mi SSE 8.1 mph 17.3 mph N/A   Overcast
4:32 PM 12.6 °F -0.6 °F -1.5 °F 54% 30.23 in 10.0 mi SSE 10.4 mph 19.6 mph N/A   Overcast
4:52 PM 12.6 °F -0.6 °F 0.1 °F 58% 30.22 in 10.0 mi SSE 10.4 mph 16.1 mph N/A   Overcast
5:12 PM 12.6 °F 2.2 °F 3.0 °F 66% 30.22 in 10.0 mi SSE 6.9 mph - N/A   Overcast
5:32 PM 12.2 °F -1.0 °F 3.4 °F 68% 30.21 in 10.0 mi SSE 10.4 mph - N/A   Overcast
5:52 PM 12.2 °F -1.8 °F 4.1 °F 70% 30.20 in 10.0 mi SSE 11.5 mph 17.3 mph N/A   Overcast
6:12 PM 12.0 °F 1.5 °F 4.8 °F 73% 30.20 in 10.0 mi SSE 6.9 mph - N/A   Overcast
6:32 PM 12.0 °F 0.5 °F 5.9 °F 76% 30.20 in 2.5 mi SSE 8.1 mph 16.1 mph N/A Snow Light Snow
6:49 PM 12.0 °F 1.5 °F 6.8 °F 80% 30.22 in 1.2 mi South 6.9 mph - N/A Snow Light Snow